This is the latest recevied weather packets stored in our database for station/object CE3MXM-13. If no packets are shown the sender has not sent any weather packets the latest 10 day(s).
| Time | Temp. | Humidity | Pressure | Rain* | Wind** | Luminosity | Snow |
|---|---|---|---|---|---|---|---|
| 1777990803 | 17.78° C | 53% | 1009.4 hPa | - | - | - | - |
| 1777990503 | 17.22° C | 55% | 1009.1 hPa | - | - | - | - |
| 1777989902 | 16.67° C | 55% | 1009.3 hPa | - | - | - | - |
| 1777989602 | 16.67° C | 55% | 1009.2 hPa | - | - | - | - |
| 1777989302 | 16.11° C | 55% | 1009.4 hPa | - | - | - | - |
| 1777989002 | 16.11° C | 55% | 1009.5 hPa | - | - | - | - |
| 1777988702 | 15.56° C | 57% | 1009.2 hPa | - | - | - | - |
| 1777988402 | 15.56° C | 58% | 1009.3 hPa | - | - | - | - |
| 1777988102 | 15.56° C | 59% | 1009.4 hPa | - | - | - | - |
| 1777987802 | 15° C | 60% | 1009.4 hPa | - | - | - | - |
| 1777987502 | 15° C | 60% | 1009.4 hPa | - | - | - | - |
| 1777987201 | 15° C | 61% | 1009.2 hPa | - | - | - | - |
| 1777986902 | 14.44° C | 63% | 1009.3 hPa | - | - | - | - |
| 1777986601 | 14.44° C | 64% | 1009.6 hPa | - | - | - | - |
| 1777986301 | 13.89° C | 67% | 1009.4 hPa | - | - | - | - |
| 1777986001 | 13.89° C | 69% | 1009.5 hPa | - | - | - | - |
| 1777985701 | 13.33° C | 69% | 1009.7 hPa | - | - | - | - |
| 1777985401 | 13.33° C | 70% | 1009.6 hPa | - | - | - | - |
| 1777985102 | 12.78° C | 73% | 1009.7 hPa | - | - | - | - |
| 1777984801 | 12.22° C | 75% | 1010 hPa | - | - | - | - |
| 1777984501 | 12.22° C | 76% | 1010 hPa | - | - | - | - |
| 1777984201 | 11.67° C | 77% | 1010.1 hPa | - | - | - | - |
| 1777983901 | 11.67° C | 78% | 1010.2 hPa | - | - | - | - |
| 1777983600 | 11.67° C | 76% | 1010.3 hPa | - | - | - | - |
| 1777983300 | 11.67° C | 78% | 1010.5 hPa | - | - | - | - |
* Rain since midnight (hover to see other rain measurements)
** Current wind speed in m/s (hover to see current wind gust speed)